User: anonymous   Login
Location: Prairie State College
(41.5244°N, 87.6382°W)
Time: 18:07:25
(UTC-06:00)
Language:

Cosmos 1140 Rocket - Orbit

View from above orbital plane
View from above orbital plane
View from above satellite
View from above satellite

Ground track
Ground track

The orbit data is extracted from the following two-line orbital elements,

1 11574U 79089B   14329.52706670  .00000357  00000-0  12076-3 0  8941
2 11574 074.0687 143.9810 0017030 286.4867 132.7615 14.40329668842574
Epoch (UTC): 25 November 2014 12:38:58
Eccentricity: 0.0017030
inclination: 74.0687°
perigee height: 745 km
apogee height: 769 km
right ascension of ascending node: 143.9810°
argument of perigee: 286.4867°
revolutions per day: 14.40329668
mean anomaly at epoch: 132.7615°
orbit number at epoch: 84257

The dashed part of the orbit path shows where the satellite is in the earth's shadow,  

DLR